Regional Weather Roundup
Issued by NWS Charleston, SC

Current Version | Previous Version | Graphics & Text | Print | Product List | Glossary On
Versions: 1 2 3 4 5 6 7 8 9 10 11 12 13 14 15 16 17 18 19 20 21 22 23 24 25 26 27 28 29 30 31 32 33 34 35 36 37 38 39 40 41 42 43 44 45 46 47 48 49 50
000
ASUS42 KCHS 310325
RWRCHS

REGIONAL WEATHER ROUNDUP
NATIONAL WEATHER SERVICE CHARLESTON SC
1100 PM EDT SAT AUG 30 2014

NOTE: "FAIR" INDICATES FEW OR NO CLOUDS BELOW 12,000 FEET WITH NO
SIGNIFICANT WEATHER AND/OR OBSTRUCTIONS TO VISIBILITY.

NOT ALL STATIONS ARE QUALITY CONTROLLED BY THE NATIONAL
WEATHER SERVICE. USE DATA WITH CAUTION...ESPECIALLY
DEWPOINT OBSERVATIONS.

SCZ027-030-031-034>040-042>050-310400-
...SOUTH CAROLINA...

CITY           SKY/WX    TMP DP  RH WIND       PRES   REMARKS
N CHARLESTON   PTCLDY    81  75  82 E5        30.15S
WATERFRONT PRK   N/A     84 N/A N/A E12         N/A
FORT JOHNSON   NOT AVBL
MOUNT PLEASANT FAIR      77  75  94 CALM      30.16R
JOHNS ISLAND   CLEAR     81  79  94 CALM      30.16R
PINOPOLIS        N/A     81  73  78 CALM      30.09R
MONCKS CORNER    N/A     75  75 100 CALM      30.16R
SUMMERVILLE    FAIR      73  73 100 CALM      30.17R
BEAUFORT MCAS  CLEAR     80  75  84 CALM      30.15R
BEAUFORT ARPT  FAIR      79  77  94 CALM      30.14S
HILTON HEAD IS PTCLDY    81  75  83 CALM      30.16R
GEORGETOWN     NOT AVBL
WALTERBORO     CLEAR     75 N/A N/A CALM      30.16S
ORANGEBURG     CLEAR     78  71  79 S5        30.16R
BARNWELL       MOCLDY    81  73  78 SE5       30.16S
AIKEN          CLOUDY    81  73  78 SE8       30.19R
MANNING        FAIR      75 N/A N/A CALM      30.16S
KINGSTREE      NOT AVBL
COLUMBIA       PTCLDY    83  70  64 SE6       30.15R
SUMTER         CLEAR     78  73  83 S2        30.16R
FLORENCE       CLEAR     77  72  84 S6        30.16S
MYRTLE BEACH   PTCLDY    82  73  74 SE7       30.17R
N MYRTLE BEACH PTCLDY    81  74  79 S6        30.17R

$$

GAZ063-065-086>088-099>101-113>116-118-119-134-136>141-150-310400-
...GEORGIA...

CITY           SKY/WX    TMP DP  RH WIND       PRES   REMARKS
SAVANNAH ARPT  PTCLDY    82  75  79 E6        30.15R
HUNTER AAF     CLEAR     80  75  85 CALM      30.13R
FORT STEWART   PTCLDY    78  74  87 CALM      30.13R
STATESBORO     NOT AVBL
SYLVANIA       CLEAR     76  74  94 CALM      30.16R
CLAXTON        NOT AVBL
THOMSON        PTCLDY    84  76  76 S6        30.18R HX  92
AUGUSTA-BUSH   PTCLDY    78  71  79 SE7       30.13R
AUGUSTA-DANIEL PTCLDY    82  72  71 SE9       30.15R
SWAINSBORO     FAIR      82  75  78 SE12      30.15R
VIDALIA          N/A     81  73  78 SE6       30.14R
ALMA           CLEAR     80  73  79 E6        30.12S
WAYCROSS       CLEAR     83  78  83 SE5       30.13S HX  92
JESUP            N/A     79  77  94 CALM      30.14S
BRUNSWICK      CLOUDY    79  73  83 CALM      30.14S
SAINT SIMONS   CLEAR     82  74  76 SE7       30.13R

$$

SCZ027-028-034-036>038-045-046-048>050-GAZ119-141-310400-
...LAKE AND SUPPLEMENTAL COASTAL OBSERVATIONS...

STATION/POSITION TIME  TEMP    WIND        PRES    WAVE   SWELL
                       AIR SEA DIR/SP/G            HT/PER HT/PER/DIR
                 (UTC) (F)     (DEG/KT/KT) (MB)    (FT/S) (FT/S/D)
UPR LAKE MARION  NOT AVBL
WINYAH BAY       0300   82     150/  5     1021.0S
LAKE MURRAY      0300   83     150/  9/ 12 1020.0S
ACE BASIN NERRS  0300   80        CALM     1021.0R
FORT PULASKI     0300   82     110/  5/  7 1021.0R
SAPELO ISLAND    0300   81     130/  2     1021.0S

$$

ANZ835-935-AMZ111-154-330-350-352-354-374-450-454-472-310400-
...C-MAN AND BUOY OBSERVATIONS...

STATION/POSITION TIME  TEMP    WIND        PRES    WAVE   SWELL
                       AIR SEA DIR/SP/G            HT/PER HT/PER/DIR
                 (UTC) (F)     (DEG/KT/KT) (MB)    (FT/S) (FT/S/D)
FOLLY BEACH CMAN 0300   83     110/  9/ 10 1021.5R
BUOY 41004       0300   83 83  130/ 10/ 12 1020.5R   3/ 8   2/ 8
BUOY 41008       0300   83 85  130/  8/ 10 1020.4R   2/ 8   2/100/ 8
5E ST. MARYS GA  0300      85                N/A     2/ 8
FRYING PAN BUOY  NOT AVBL
BUOY 41025       0300   80     150/ 12/ 14 1022.0R   3/ 8   3/110/ 8
CAPE LOOKOUT NC  0300   81     160/ 11/ 12 1022.1R
BUOY 41002       0204   81 83  160/ 10/ 12 1022.5R   3/10   3/140/10
BUOY 41010       0300   83 85  140/  6/  8 1021.0R   4/10   3/110/10
BUOY 41012       NOT AVBL
ST AUGUSTINE FL  0300   83     170/ 14/ 14 1020.9R
CAPERS NEARSHORE NOT AVBL
FRIPP NEARSHORE  NOT AVBL


$$


USA.gov is the U.S. government's official web portal to all federal, state and local government web resources and services.